Main page
Satellite images Climate Cyclones Lightning AirportsFAQ Languages Contact Newsletter About
Weather : Europe Africa North America South America Asia Australia-Oceania Others

, Loei, Loei Airport

48353

latitude: , longitude: Thailand, elevation: 17-27N m


METAR: VTUL 221000Z VRB02KT 9999 SCT035 28/23 Q1010